Time,TemperatureF,DewpointF,PressureIn,WindDirection,WindDirectionDegrees,WindSpeedMPH,WindSpeedGustMPH,Humidity,HourlyPrecipIn,Conditions,Clouds,dailyrainin,SoftwareType,DateUTC
2013-03-04 00:00:00,42.5,31.6,29.53,SE,135,2.0,12.0,65,0.00,,---,0.00,VWS V14.01,2013-03-04 06:00:00,
2013-03-04 00:10:00,42.2,31.3,29.53,SE,135,0.0,0.0,65,0.00,,---,0.00,VWS V14.01,2013-03-04 06:10:00,
2013-03-04 00:20:00,42.2,31.3,29.54,SSE,158,1.0,5.0,65,0.00,,---,0.00,VWS V14.01,2013-03-04 06:20:00,
2013-03-04 00:30:00,42.1,31.2,29.53,SSE,158,1.0,4.0,65,0.00,,---,0.00,VWS V14.01,2013-03-04 06:30:00,
2013-03-04 00:40:00,41.8,31.3,29.53,SSE,158,0.0,5.0,66,0.00,,---,0.00,VWS V14.01,2013-03-04 06:40:00,
2013-03-04 00:50:00,41.6,31.1,29.53,SSE,158,0.0,2.0,66,0.00,,---,0.00,VWS V14.01,2013-03-04 06:50:00,
2013-03-04 01:00:00,41.5,31.4,29.53,SSE,158,0.0,2.0,67,0.00,,---,0.00,VWS V14.01,2013-03-04 07:00:00,
2013-03-04 01:10:00,41.2,31.1,29.53,SSE,158,0.0,0.0,67,0.00,,---,0.00,VWS V14.01,2013-03-04 07:10:00,
2013-03-04 01:20:00,40.9,31.2,29.53,SSE,158,0.0,0.0,68,0.00,,---,0.00,VWS V14.01,2013-03-04 07:20:00,
2013-03-04 01:30:00,40.6,30.9,29.53,SSE,158,0.0,0.0,68,0.00,,---,0.00,VWS V14.01,2013-03-04 07:30:00,
2013-03-04 01:40:00,40.2,30.9,29.53,SSE,158,0.0,0.0,69,0.00,,---,0.00,VWS V14.01,2013-03-04 07:40:00,
2013-03-04 01:50:00,40.2,30.9,29.52,SSE,158,2.0,4.0,69,0.00,,---,0.00,VWS V14.01,2013-03-04 07:50:00,
2013-03-04 02:00:00,39.8,30.8,29.53,SSE,158,1.0,3.0,70,0.00,,---,0.00,VWS V14.01,2013-03-04 08:00:00,
2013-03-04 02:10:00,39.2,30.2,29.53,SSE,158,0.0,0.0,70,0.00,,---,0.00,VWS V14.01,2013-03-04 08:10:00,
2013-03-04 02:20:00,38.8,30.2,29.53,SSE,158,0.0,0.0,71,0.00,,---,0.00,VWS V14.01,2013-03-04 08:20:00,
2013-03-04 02:30:00,38.6,30.4,29.53,SSE,158,0.0,0.0,72,0.00,,---,0.00,VWS V14.01,2013-03-04 08:30:00,
2013-03-04 02:40:00,38.6,30.4,29.53,SSE,158,0.0,0.0,72,0.00,,---,0.00,VWS V14.01,2013-03-04 08:40:00,
2013-03-04 02:50:00,38.0,29.8,29.52,SSE,158,0.0,4.0,72,0.00,,---,0.00,VWS V14.01,2013-03-04 08:50:00,
2013-03-04 03:00:00,36.9,29.4,29.51,SSE,158,1.0,3.0,74,0.00,,---,0.00,VWS V14.01,2013-03-04 09:00:00,
2013-03-04 03:10:00,37.0,30.1,29.51,SSE,158,0.0,0.0,76,0.00,,---,0.00,VWS V14.01,2013-03-04 09:10:00,
2013-03-04 03:20:00,37.3,30.1,29.51,SSE,158,0.0,0.0,75,0.00,,---,0.00,VWS V14.01,2013-03-04 09:20:00,
2013-03-04 03:30:00,37.2,30.0,29.52,SSE,158,0.0,0.0,75,0.00,,---,0.00,VWS V14.01,2013-03-04 09:30:00,
2013-03-04 03:40:00,37.5,30.3,29.52,SSE,158,0.0,0.0,75,0.00,,---,0.00,VWS V14.01,2013-03-04 09:40:00,
2013-03-04 03:50:00,37.0,29.8,29.53,SSE,158,0.0,0.0,75,0.00,,---,0.00,VWS V14.01,2013-03-04 09:50:00,
2013-03-04 04:00:00,36.6,29.4,29.53,SSE,158,0.0,0.0,75,0.00,,---,0.00,VWS V14.01,2013-03-04 10:00:00,
2013-03-04 04:10:00,36.9,29.7,29.53,SSE,158,0.0,2.0,75,0.00,,---,0.00,VWS V14.01,2013-03-04 10:10:00,
2013-03-04 04:20:00,36.5,29.7,29.53,SSE,158,0.0,0.0,76,0.00,,---,0.00,VWS V14.01,2013-03-04 10:20:00,
2013-03-04 04:30:00,35.8,29.0,29.53,SSE,158,0.0,0.0,76,0.00,,---,0.00,VWS V14.01,2013-03-04 10:30:00,
2013-03-04 04:40:00,34.6,28.1,29.53,SSE,158,0.0,0.0,77,0.00,,---,0.00,VWS V14.01,2013-03-04 10:40:00,
2013-03-04 04:50:00,33.8,28.0,29.54,SSE,158,0.0,0.0,79,0.00,,---,0.00,VWS V14.01,2013-03-04 10:50:00,
2013-03-04 05:00:00,33.8,28.0,29.54,SSE,158,0.0,0.0,79,0.00,,---,0.00,VWS V14.01,2013-03-04 11:00:00,
2013-03-04 05:10:00,33.5,28.0,29.54,SSE,158,0.0,0.0,80,0.00,,---,0.00,VWS V14.01,2013-03-04 11:10:00,
2013-03-04 05:20:00,33.5,28.3,29.54,SSE,158,0.0,0.0,81,0.00,,---,0.00,VWS V14.01,2013-03-04 11:20:00,
2013-03-04 05:30:00,33.4,28.2,29.53,SSE,158,0.0,0.0,81,0.00,,---,0.00,VWS V14.01,2013-03-04 11:30:00,
2013-03-04 05:40:00,33.1,28.2,29.53,SSE,158,0.0,0.0,82,0.00,,---,0.00,VWS V14.01,2013-03-04 11:40:00,
2013-03-04 05:50:00,33.1,28.2,29.54,SSE,158,2.0,4.0,82,0.00,,---,0.00,VWS V14.01,2013-03-04 11:50:00,
2013-03-04 06:00:00,33.2,28.3,29.54,SSE,158,3.0,4.0,82,0.00,,---,0.00,VWS V14.01,2013-03-04 12:00:00,
2013-03-04 06:10:00,33.1,28.2,29.54,SSE,158,3.0,4.0,82,0.00,,---,0.00,VWS V14.01,2013-03-04 12:10:00,
2013-03-04 06:20:00,32.8,27.9,29.54,SSE,158,2.0,4.0,82,0.00,,---,0.00,VWS V14.01,2013-03-04 12:20:00,
2013-03-04 06:30:00,32.8,28.2,29.55,SSE,158,0.0,4.0,83,0.00,,---,0.00,VWS V14.01,2013-03-04 12:30:00,
2013-03-04 06:40:00,32.5,27.9,29.55,SSE,158,3.0,4.0,83,0.00,,---,0.00,VWS V14.01,2013-03-04 12:40:00,
2013-03-04 06:50:00,32.4,27.8,29.55,SSE,158,1.0,4.0,83,0.00,,---,0.00,VWS V14.01,2013-03-04 12:50:00,
2013-03-04 07:00:00,32.4,28.1,29.55,SSE,158,0.0,0.0,84,0.00,,---,0.00,VWS V14.01,2013-03-04 13:00:00,
2013-03-04 07:10:00,32.2,27.9,29.55,SSE,158,0.0,0.0,84,0.00,,---,0.00,VWS V14.01,2013-03-04 13:10:00,
2013-03-04 07:20:00,32.1,28.1,29.55,SSE,158,0.0,0.0,85,0.00,,---,0.00,VWS V14.01,2013-03-04 13:20:00,
2013-03-04 07:30:00,32.1,28.1,29.56,SSE,158,0.0,0.0,85,0.00,,---,0.00,VWS V14.01,2013-03-04 13:30:00,
2013-03-04 07:40:00,32.5,28.8,29.56,SSE,158,0.0,0.0,86,0.00,,---,0.00,VWS V14.01,2013-03-04 13:40:00,
2013-03-04 07:50:00,32.9,28.9,29.56,SSE,158,0.0,0.0,85,0.00,,---,0.00,VWS V14.01,2013-03-04 13:50:00,
2013-03-04 08:00:00,32.9,28.9,29.58,SSE,158,0.0,0.0,85,0.00,,---,0.00,VWS V14.01,2013-03-04 14:00:00,
2013-03-04 08:10:00,33.2,29.5,29.58,SSE,158,0.0,4.0,86,0.00,,---,0.00,VWS V14.01,2013-03-04 14:10:00,
2013-03-04 08:20:00,33.7,29.7,29.59,SSE,158,1.0,5.0,85,0.00,,---,0.00,VWS V14.01,2013-03-04 14:20:00,
2013-03-04 08:30:00,34.1,30.1,29.60,SSE,158,0.0,3.0,85,0.00,,---,0.00,VWS V14.01,2013-03-04 14:30:00,
2013-03-04 08:40:00,34.4,30.4,29.60,SSE,158,2.0,6.0,85,0.00,,---,0.00,VWS V14.01,2013-03-04 14:40:00,
2013-03-04 08:50:00,34.9,30.9,29.60,South,180,1.0,5.0,85,0.00,,---,0.00,VWS V14.01,2013-03-04 14:50:00,
2013-03-04 09:00:00,35.9,31.5,29.60,South,180,4.0,10.0,84,0.00,,---,0.00,VWS V14.01,2013-03-04 15:00:00,
2013-03-04 09:10:00,36.8,32.1,29.60,West,270,6.0,10.0,83,0.00,,---,0.00,VWS V14.01,2013-03-04 15:10:00,
2013-03-04 09:20:00,38.0,32.7,29.60,WNW,292,6.0,11.0,81,0.00,,---,0.00,VWS V14.01,2013-03-04 15:20:00,
2013-03-04 09:30:00,39.2,33.2,29.59,WNW,292,6.0,13.0,79,0.00,,---,0.00,VWS V14.01,2013-03-04 15:30:00,
2013-03-04 09:40:00,40.2,33.2,29.59,WNW,292,6.0,14.0,76,0.00,,---,0.00,VWS V14.01,2013-03-04 15:40:00,
2013-03-04 09:50:00,41.1,33.5,29.60,NW,315,7.0,17.0,74,0.00,,---,0.00,VWS V14.01,2013-03-04 15:50:00,
2013-03-04 10:00:00,42.1,33.7,29.61,NNW,338,3.0,15.0,72,0.00,,---,0.00,VWS V14.01,2013-03-04 16:00:00,
2013-03-04 10:10:00,42.1,34.1,29.61,NNW,338,7.0,16.0,73,0.00,,---,0.00,VWS V14.01,2013-03-04 16:10:00,
2013-03-04 10:20:00,43.1,34.7,29.61,NNW,338,3.0,16.0,72,0.00,,---,0.00,VWS V14.01,2013-03-04 16:20:00,
2013-03-04 10:30:00,42.3,34.3,29.62,NW,315,6.0,19.0,73,0.00,,---,0.00,VWS V14.01,2013-03-04 16:30:00,
2013-03-04 10:40:00,41.6,34.6,29.62,NW,315,8.0,23.0,76,0.00,,---,0.00,VWS V14.01,2013-03-04 16:40:00,
2013-03-04 10:50:00,41.3,34.3,29.63,NW,315,7.0,17.0,76,0.00,,---,0.00,VWS V14.01,2013-03-04 16:50:00,
2013-03-04 11:00:00,41.3,34.7,29.63,NNW,338,8.0,21.0,77,0.00,,---,0.00,VWS V14.01,2013-03-04 17:00:00,
2013-03-04 11:10:00,41.3,34.7,29.63,NNW,338,7.0,21.0,77,0.00,,---,0.00,VWS V14.01,2013-03-04 17:10:00,
2013-03-04 11:20:00,41.5,34.5,29.63,NNW,338,8.0,20.0,76,0.00,,---,0.00,VWS V14.01,2013-03-04 17:20:00,
2013-03-04 11:30:00,41.6,34.6,29.64,NNW,338,8.0,20.0,76,0.00,,---,0.00,VWS V14.01,2013-03-04 17:30:00,
2013-03-04 11:40:00,41.6,34.3,29.64,NNW,338,8.0,21.0,75,0.00,,---,0.00,VWS V14.01,2013-03-04 17:40:00,
2013-03-04 11:50:00,41.6,34.3,29.64,NW,315,8.0,24.0,75,0.00,,---,0.00,VWS V14.01,2013-03-04 17:50:00,
2013-03-04 12:00:00,41.6,34.6,29.64,NNW,338,7.0,21.0,76,0.00,,---,0.00,VWS V14.01,2013-03-04 18:00:00,
2013-03-04 12:10:00,41.9,34.6,29.64,NNW,338,8.0,21.0,75,0.00,,---,0.00,VWS V14.01,2013-03-04 18:10:00,
2013-03-04 12:20:00,42.1,34.4,29.64,NW,315,7.0,19.0,74,0.00,,---,0.00,VWS V14.01,2013-03-04 18:20:00,
2013-03-04 12:30:00,42.2,34.2,29.63,NNW,338,10.0,21.0,73,0.00,,---,0.00,VWS V14.01,2013-03-04 18:30:00,
2013-03-04 12:40:00,42.3,33.9,29.63,North,0,9.0,21.0,72,0.00,,---,0.00,VWS V14.01,2013-03-04 18:40:00,
2013-03-04 12:50:00,42.6,33.9,29.63,NNW,338,6.0,21.0,71,0.00,,---,0.00,VWS V14.01,2013-03-04 18:50:00,
2013-03-04 13:00:00,42.1,33.7,29.63,NNW,338,10.0,21.0,72,0.00,,---,0.00,VWS V14.01,2013-03-04 19:00:00,
2013-03-04 13:10:00,42.2,34.2,29.63,North,0,8.0,22.0,73,0.00,,---,0.00,VWS V14.01,2013-03-04 19:10:00,
2013-03-04 13:20:00,42.5,34.1,29.63,NNW,338,7.0,22.0,72,0.00,,---,0.00,VWS V14.01,2013-03-04 19:20:00,
2013-03-04 13:30:00,42.2,33.8,29.62,North,0,9.0,20.0,72,0.00,,---,0.00,VWS V14.01,2013-03-04 19:30:00,
2013-03-04 13:40:00,42.3,33.9,29.62,NNW,338,8.0,17.0,72,0.00,,---,0.00,VWS V14.01,2013-03-04 19:40:00,
2013-03-04 13:50:00,42.1,33.7,29.62,North,0,10.0,21.0,72,0.00,,---,0.00,VWS V14.01,2013-03-04 19:50:00,
2013-03-04 14:00:00,42.3,33.6,29.62,North,0,9.0,20.0,71,0.00,,---,0.00,VWS V14.01,2013-03-04 20:00:00,
2013-03-04 14:10:00,42.2,33.8,29.62,North,0,10.0,22.0,72,0.00,,---,0.00,VWS V14.01,2013-03-04 20:10:00,
2013-03-04 14:20:00,42.3,33.2,29.63,North,0,7.0,16.0,70,0.00,,---,0.00,VWS V14.01,2013-03-04 20:20:00,
2013-03-04 14:30:00,42.1,33.4,29.64,North,0,7.0,14.0,71,0.00,,---,0.00,VWS V14.01,2013-03-04 20:30:00,
2013-03-04 14:40:00,42.1,33.4,29.64,North,0,8.0,16.0,71,0.00,,---,0.00,VWS V14.01,2013-03-04 20:40:00,
2013-03-04 14:50:00,42.3,33.2,29.64,North,0,5.0,15.0,70,0.00,,---,0.00,VWS V14.01,2013-03-04 20:50:00,
2013-03-04 15:00:00,42.5,33.1,29.64,North,0,5.0,13.0,69,0.00,,---,0.00,VWS V14.01,2013-03-04 21:00:00,
2013-03-04 15:10:00,42.2,33.1,29.64,North,0,9.0,19.0,70,0.00,,---,0.00,VWS V14.01,2013-03-04 21:10:00,
2013-03-04 15:20:00,42.2,33.1,29.65,North,0,8.0,19.0,70,0.00,,---,0.00,VWS V14.01,2013-03-04 21:20:00,
2013-03-04 15:30:00,42.3,32.9,29.65,North,0,7.0,18.0,69,0.00,,---,0.00,VWS V14.01,2013-03-04 21:30:00,
2013-03-04 15:40:00,42.6,33.2,29.65,North,0,6.0,14.0,69,0.00,,---,0.00,VWS V14.01,2013-03-04 21:40:00,
2013-03-04 15:50:00,42.6,33.2,29.66,North,0,2.0,11.0,69,0.00,,---,0.00,VWS V14.01,2013-03-04 21:50:00,
2013-03-04 16:00:00,42.5,33.1,29.68,NNW,338,5.0,15.0,69,0.00,,---,0.00,VWS V14.01,2013-03-04 22:00:00,
2013-03-04 16:10:00,42.2,32.8,29.68,North,0,6.0,15.0,69,0.00,,---,0.00,VWS V14.01,2013-03-04 22:10:00,
2013-03-04 16:20:00,42.2,32.8,29.70,NNW,338,6.0,15.0,69,0.00,,---,0.00,VWS V14.01,2013-03-04 22:20:00,
2013-03-04 16:30:00,41.9,32.8,29.73,NW,315,5.0,14.0,70,0.00,,---,0.00,VWS V14.01,2013-03-04 22:30:00,
2013-03-04 16:40:00,41.8,32.8,29.73,NNW,338,6.0,19.0,70,0.00,,---,0.00,VWS V14.01,2013-03-04 22:40:00,
2013-03-04 16:50:00,41.8,32.8,29.75,NNW,338,8.0,21.0,70,0.00,,---,0.00,VWS V14.01,2013-03-04 22:50:00,
2013-03-04 17:00:00,41.6,32.6,29.76,NNW,338,5.0,14.0,70,0.00,,---,0.00,VWS V14.01,2013-03-04 23:00:00,
2013-03-04 17:10:00,41.6,32.6,29.76,NNW,338,4.0,13.0,70,0.00,,---,0.00,VWS V14.01,2013-03-04 23:10:00,
2013-03-04 17:20:00,41.6,32.9,29.77,North,0,3.0,12.0,71,0.00,,---,0.00,VWS V14.01,2013-03-04 23:20:00,
2013-03-04 17:30:00,41.8,33.1,29.78,North,0,3.0,10.0,71,0.00,,---,0.00,VWS V14.01,2013-03-04 23:30:00,
2013-03-04 17:40:00,41.9,32.8,29.78,NNW,338,7.0,18.0,70,0.00,,---,0.00,VWS V14.01,2013-03-04 23:40:00,
2013-03-04 17:50:00,41.8,33.1,29.78,NNW,338,7.0,16.0,71,0.00,,---,0.00,VWS V14.01,2013-03-04 23:50:00,
2013-03-04 18:00:00,41.5,33.2,29.79,North,0,7.0,19.0,72,0.00,,---,0.00,VWS V14.01,2013-03-05 00:00:00,
2013-03-04 18:10:00,41.3,32.6,29.79,NNW,338,6.0,15.0,71,0.00,,---,0.00,VWS V14.01,2013-03-05 00:10:00,
2013-03-04 18:20:00,41.2,32.5,29.81,NNW,338,9.0,21.0,71,0.00,,---,0.00,VWS V14.01,2013-03-05 00:20:00,
2013-03-04 18:30:00,41.1,32.4,29.82,North,0,7.0,17.0,71,0.00,,---,0.00,VWS V14.01,2013-03-05 00:30:00,
2013-03-04 18:40:00,41.1,32.4,29.82,North,0,5.0,16.0,71,0.00,,---,0.00,VWS V14.01,2013-03-05 00:40:00,
2013-03-04 18:50:00,40.9,32.2,29.84,North,0,5.0,14.0,71,0.00,,---,0.00,VWS V14.01,2013-03-05 00:50:00,
2013-03-04 19:00:00,40.8,32.5,29.85,NNW,338,4.0,15.0,72,0.00,,---,0.00,VWS V14.01,2013-03-05 01:00:00,
2013-03-04 19:10:00,40.6,32.3,29.85,North,0,3.0,13.0,72,0.00,,---,0.00,VWS V14.01,2013-03-05 01:10:00,
2013-03-04 19:20:00,40.6,32.0,29.86,NNW,338,4.0,13.0,71,0.00,,---,0.00,VWS V14.01,2013-03-05 01:20:00,
2013-03-04 19:30:00,40.5,31.9,29.88,NNW,338,5.0,16.0,71,0.00,,---,0.00,VWS V14.01,2013-03-05 01:30:00,
2013-03-04 19:40:00,40.3,31.7,29.88,NNW,338,5.0,13.0,71,0.00,,---,0.00,VWS V14.01,2013-03-05 01:40:00,
2013-03-04 19:50:00,40.3,31.7,29.89,NNW,338,3.0,13.0,71,0.00,,---,0.00,VWS V14.01,2013-03-05 01:50:00,
2013-03-04 20:00:00,40.3,31.7,29.91,NNW,338,3.0,12.0,71,0.00,,---,0.00,VWS V14.01,2013-03-05 02:00:00,
2013-03-04 20:10:00,40.3,31.7,29.91,NNW,338,4.0,17.0,71,0.00,,---,0.00,VWS V14.01,2013-03-05 02:10:00,
2013-03-04 20:20:00,40.2,31.9,29.92,NW,315,7.0,19.0,72,0.00,,---,0.00,VWS V14.01,2013-03-05 02:20:00,
2013-03-04 20:30:00,39.9,32.0,29.93,NW,315,5.0,15.0,73,0.00,,---,0.00,VWS V14.01,2013-03-05 02:30:00,
2013-03-04 20:40:00,39.6,32.7,29.93,NW,315,5.0,16.0,76,0.00,,---,0.00,VWS V14.01,2013-03-05 02:40:00,
2013-03-04 20:50:00,39.2,33.2,29.95,NW,315,4.0,15.0,79,0.00,,---,0.00,VWS V14.01,2013-03-05 02:50:00,
2013-03-04 21:00:00,38.5,33.5,29.96,NW,315,3.0,12.0,82,0.00,,---,0.00,VWS V14.01,2013-03-05 03:00:00,
2013-03-04 21:10:00,37.6,33.2,29.96,NNW,338,5.0,16.0,84,0.00,,---,0.01,VWS V14.01,2013-03-05 03:10:00,
2013-03-04 21:20:00,37.2,33.4,29.96,NW,315,2.0,12.0,86,0.00,,---,0.02,VWS V14.01,2013-03-05 03:20:00,
2013-03-04 21:30:00,37.2,33.7,29.97,NW,315,0.0,5.0,87,0.00,,---,0.02,VWS V14.01,2013-03-05 03:30:00,
2013-03-04 21:40:00,37.2,34.0,29.97,NW,315,1.0,6.0,88,0.00,,---,0.02,VWS V14.01,2013-03-05 03:40:00,
2013-03-04 21:50:00,37.2,34.3,29.98,NW,315,2.0,9.0,89,0.00,,---,0.02,VWS V14.01,2013-03-05 03:50:00,
2013-03-04 22:00:00,37.0,34.1,29.96,NW,315,1.0,7.0,89,0.00,,---,0.02,VWS V14.01,2013-03-05 04:00:00,
2013-03-04 22:10:00,37.0,34.1,29.96,NW,315,0.0,5.0,89,0.00,,---,0.02,VWS V14.01,2013-03-05 04:10:00,
2013-03-04 22:20:00,36.9,34.2,29.97,NW,315,0.0,0.0,90,0.00,,---,0.02,VWS V14.01,2013-03-05 04:20:00,
2013-03-04 22:30:00,36.9,34.2,29.97,NW,315,1.0,7.0,90,0.00,,---,0.02,VWS V14.01,2013-03-05 04:30:00,
2013-03-04 22:40:00,36.8,34.2,29.97,NW,315,1.0,4.0,90,0.00,,---,0.02,VWS V14.01,2013-03-05 04:40:00,
2013-03-04 22:50:00,36.6,34.0,29.97,NW,315,0.0,0.0,90,0.00,,---,0.02,VWS V14.01,2013-03-05 04:50:00,
2013-03-04 23:00:00,36.5,33.8,29.97,NW,315,0.0,0.0,90,0.00,,---,0.02,VWS V14.01,2013-03-05 05:00:00,
2013-03-04 23:10:00,36.3,33.9,29.97,NW,315,0.0,0.0,91,0.00,,---,0.02,VWS V14.01,2013-03-05 05:10:00,
2013-03-04 23:20:00,36.0,33.6,29.96,NW,315,0.0,0.0,91,0.00,,---,0.02,VWS V14.01,2013-03-05 05:20:00,
2013-03-04 23:30:00,36.0,33.6,29.96,NW,315,0.0,3.0,91,0.00,,---,0.02,VWS V14.01,2013-03-05 05:30:00,
2013-03-04 23:40:00,35.8,33.4,29.96,NW,315,0.0,0.0,91,0.00,,---,0.02,VWS V14.01,2013-03-05 05:40:00,
2013-03-04 23:50:00,35.6,33.5,29.98,NW,315,0.0,0.0,92,0.00,,---,0.02,VWS V14.01,2013-03-05 05:50:00,